CYGFM03

Last updated on Wed Jul 02 2025 00:02:22 GMT+0000 (Coordinated Universal Time)

1 41891U 16078H 25182.57915307 .00011073 00000+0 24649-3 0 9999 2 41891 34.9449 12.8706 0007023 100.3131 259.8381 15.42760633474517
UTC large
Height (km)
Speed (km/s)
/
Latitude / Longitude
Inclination (degrees)
Orbital Period (minutes)
Azimuth
Elevation
Range (km)
Doppler Factor

Next 0 passes for location: London (51.5072 / 0.1276)

Sorry there are no passes over London.